[[{"header":{"parameterUnit":"m.s-1","parameterCategory":1,"la1":30.2991,"la2":30.254,"lo1":-89.0895,"lo2":-89.0444,"dy":0.0017,"dx":0.0017,"nx":28,"ny":28,"refTime":"2025-07-22T03:00:00:Z","depth":0,"parameterNumber":2,"parameterNumberName":"U-component_of_WINDS"},"data":[0,0,0,0,0,0,0,0,0,0,0,0,0,0,0,0,0,0,0,0,0,0,0,0,0,0,0,0,0,0,0,0,0,0,0,0,0,0,0,0,0,0,0,0,0,0,0,0,0,0,0,0,0,0,0,0,0,0,2.0897,2.0897,0,2.093,2.093,2.093,2.0909,2.0908,2.0907,2.0906,2.0942,2.0943,2.0945,0,0,0,0,0,0,0,0,0,0,0,0,0,2.0819,2.082,2.0897,2.0898,2.0898,2.0929,2.093,2.093,2.0909,2.0908,2.0907,2.0906,2.0941,2.0943,2.0945,0,0,0,0,0,0,0,0,0,0,0,0,0,2.0852,2.0821,2.0897,2.0891,2.0891,2.0929,2.093,2.093,2.091,2.0908,2.0907,2.0905,2.094,2.0943,2.0946,2.0992,0,0,2.0954,2.0955,0,0,0,0,0,0,0,0,2.085,2.0855,2.0892,2.0892,2.0892,2.0914,2.0915,2.0951,2.091,2.0903,2.0906,2.0905,2.0934,2.0937,2.0946,2.0994,2.0995,2.0954,2.0956,2.0957,2.0958,0,0,0,0,0,0,0,2.0848,2.0853,2.091,2.0892,2.0892,2.0888,2.0891,2.0922,2.0926,2.0903,2.0902,2.0906,2.0933,2.0944,2.0947,2.0996,2.0954,2.0957,2.0958,2.096,2.1082,2.1083,0,0,0,0,0,0,2.0846,2.0852,2.0909,2.0911,2.0867,2.089,2.0894,2.0908,2.0926,2.0927,2.0907,2.0905,2.094,2.0944,2.0948,2.1002,2.0957,2.096,2.0961,2.108,2.1082,2.1084,0,0,0,0,0,0,2.0844,2.0851,2.0908,2.0881,2.0888,2.0893,2.091,2.091,2.092,2.0928,2.0929,2.0917,2.0939,2.0944,2.0981,2.1003,2.0961,2.0964,2.1078,2.1081,2.1083,2.1111,0,0,0,0,0,0,2.0842,2.0851,2.0868,2.0881,2.0889,2.0939,2.0911,2.0911,2.0924,2.0922,2.0938,2.0939,2.0938,2.0977,2.0984,2.1006,2.0966,2.1076,2.1079,2.1082,2.1108,2.1114,2.1119,0,0,0,0,0,2.0839,2.0875,2.0869,2.0876,2.0911,2.0941,2.0945,2.0943,2.0926,2.0944,2.0949,2.0938,2.1,2.0981,2.0988,2.1012,2.1075,2.1078,2.1082,2.1105,2.1113,2.1119,0,0,0,0,0,0,2.0865,2.0877,2.087,2.0911,2.0925,2.0937,2.0959,2.0951,2.097,2.0966,2.0963,2.0967,2.1005,2.1013,2.0991,2.1057,2.1035,2.104,2.105,2.1057,2.1063,2.1059,2.0968,0,0,0,0,0,2.0875,2.0898,2.0908,2.0943,2.095,2.0953,2.0966,2.0963,2.0978,2.0983,2.0992,2.1007,2.1029,2.1044,2.1065,2.111,2.1112,2.113,2.1135,2.114,2.1144,2.1166,2.1174,2.1095,2.1095,2.1095,0,0,2.0896,2.0906,2.0921,2.0948,2.0958,2.0982,2.0958,2.0985,2.1002,2.0988,2.1022,2.1029,2.1045,2.1086,2.1104,2.1093,2.1166,2.1144,2.1148,2.1149,2.1171,2.1178,2.1185,2.1098,2.1097,2.1097,0,0,2.0947,2.0957,2.0987,2.0998,2.1014,2.1016,2.1023,2.1036,2.104,2.1074,2.1064,2.1085,2.1124,2.1136,2.1147,2.1203,2.1193,2.121,2.1238,2.126,2.1266,2.1272,2.129,2.1296,2.1214,2.1215,2.1215,0,2.0972,2.1006,2.1004,2.103,2.1042,2.103,2.106,2.1071,2.1093,2.1102,2.109,2.1138,2.1149,2.119,2.1204,2.1214,2.1222,2.1207,2.1266,2.1271,2.1276,2.1293,2.13,2.1216,2.1216,2.1216,2.1216,0,2.1035,2.1059,2.1082,2.1102,2.1117,2.1146,2.1147,2.1163,2.1159,2.1163,2.1198,2.121,2.1233,2.1243,2.124,2.1285,2.1277,2.1266,2.1243,2.1285,2.1301,2.1308,2.1219,2.1218,2.1218,2.1217,0,0,2.1101,2.112,2.1128,2.1136,2.1153,2.1172,2.12,2.1222,2.1235,2.1251,2.1274,2.1307,2.1296,2.1309,2.1307,2.1327,2.1368,2.1313,2.1313,2.1321,2.1416,2.1423,2.1431,2.1363,2.1364,2.1365,2.1414,0,2.115,2.1198,2.1197,2.1241,2.1263,2.1252,2.1277,2.129,2.1294,2.1314,2.1319,2.1342,2.1327,2.1334,2.1353,2.1359,2.1387,2.1356,2.1383,2.1384,2.1377,2.144,2.1447,2.1493,2.1421,2.1422,2.1422,0,2.1214,2.1231,2.1278,2.1291,2.13,2.1321,2.1341,2.136,2.1375,2.1377,2.1391,2.1386,2.1415,2.1393,2.1432,2.1411,2.1422,2.1427,2.1429,2.1429,2.1404,2.144,2.1507,2.1513,2.1433,2.1432,2.1431,0,2.1255,2.129,2.1322,2.133,2.1346,2.1362,2.1369,2.1383,2.1396,2.1413,2.1422,2.1443,2.1454,2.1471,2.1472,2.1456,2.1511,2.1489,2.1512,2.1512,2.1522,2.1521,2.159,2.1533,2.1533,2.1533,2.1533,0,2.1309,2.1337,2.134,2.1359,2.139,2.1389,2.1421,2.1427,2.1439,2.1459,2.1453,2.1472,2.1474,2.1494,2.1496,2.1526,2.1532,2.1534,2.1534,2.1533,2.1533,2.1539,2.1535,2.1535,2.1535,2.1534,2.1534,0,2.1358,2.1361,2.1395,2.1408,2.1412,2.1434,2.1445,2.1464,2.1468,2.1494,2.15,2.1506,2.153,2.1533,2.1561,2.1562,2.1598,2.1596,2.1593,2.1592,2.1613,2.161,2.1687,2.1696,2.1636,2.1637,2.1637,0,2.1391,2.1412,2.1427,2.144,2.1449,2.147,2.1483,2.1483,2.1497,2.1515,2.1532,2.1554,2.1572,2.161,2.1617,2.1638,2.1635,2.1661,2.1638,2.1637,2.1633,2.1631,2.1632,2.1664,2.1665,2.1665,2.1666,0,2.1449,2.1449,2.1468,2.1487,2.1503,2.1519,2.1533,2.1544,2.1546,2.1563,2.1586,2.16,2.1628,2.165,2.1671,2.1679,2.1672,2.1673,2.1679,2.1678,2.1674,2.1674,2.1602,2.1671,2.167,2.167,2.167,2.1669,2.1489,2.1507,2.152,2.1541,2.1553,2.1566,2.1584,2.159,2.1609,2.1631,2.1631,2.1656,2.1671,2.1698,2.1708,2.1728,2.1719,2.1729,2.173,2.1732,2.1733,2.1673,2.1732,2.1732,2.1732,2.1732,2.1731,0,2.1545,2.1553,2.1572,2.1592,2.1609,2.1602,2.1618,2.1632,2.1654,2.1668,2.1685,2.1712,2.1734,2.1743,2.1764,2.1778,2.1776,2.1784,2.1781,2.1783,2.174,2.1732,2.1785,2.1785,2.1785,2.1785,2.1785,2.1785,2.1575,2.1605,2.1607,2.1642,2.165,2.1674,2.1684,2.1696,2.1707,2.1737,2.1754,2.176,2.1772,2.1794,2.1814,2.1816,2.1823,2.1832,2.1833,2.1792,2.1786,2.1781,2.1773,2.1834,2.1834,2.1873,2.1874,2.1874]},{"header":{"parameterUnit":"m.s-1","parameterCategory":1,"la1":30.2991,"la2":30.254,"lo1":-89.0895,"lo2":-89.0444,"dy":0.0017,"dx":0.0017,"nx":28,"ny":28,"refTime":"2025-07-22T03:00:00:Z","depth":0,"parameterNumber":3,"parameterNumberName":"V-component_of_WINDS"},"data":[0,0,0,0,0,0,0,0,0,0,0,0,0,0,0,0,0,0,0,0,0,0,0,0,0,0,0,0,0,0,0,0,0,0,0,0,0,0,0,0,0,0,0,0,0,0,0,0,0,0,0,0,0,0,0,0,0,0,4.7879,4.7879,0,4.7819,4.7818,4.7817,4.7752,4.7752,4.7751,4.775,4.7686,4.7685,4.7684,0,0,0,0,0,0,0,0,0,0,0,0,0,4.7936,4.7935,4.7879,4.7879,4.7878,4.7819,4.7818,4.7817,4.7753,4.7752,4.775,4.7749,4.7686,4.7685,4.7684,0,0,0,0,0,0,0,0,0,0,0,0,0,4.7897,4.7935,4.7879,4.7838,4.7834,4.7819,4.7818,4.7817,4.7753,4.7751,4.775,4.7749,4.7686,4.7685,4.7684,4.7703,0,0,4.768,4.7679,0,0,0,0,0,0,0,0,4.7899,4.7895,4.7845,4.7841,4.7836,4.7792,4.7814,4.7779,4.7753,4.7784,4.775,4.7748,4.7722,4.7718,4.7709,4.77,4.7697,4.768,4.7679,4.7678,4.7678,0,0,0,0,0,0,0,4.7902,4.7897,4.7855,4.7845,4.7839,4.7822,4.7815,4.7807,4.7761,4.7781,4.7776,4.777,4.7719,4.7711,4.7707,4.7697,4.768,4.7678,4.7678,4.7677,4.7698,4.7699,0,0,0,0,0,0,4.7911,4.79,4.7857,4.7853,4.7865,4.7822,4.7814,4.7807,4.7761,4.7753,4.7771,4.7767,4.7713,4.7709,4.7705,4.7722,4.7678,4.7677,4.7676,4.7696,4.7698,4.7699,0,0,0,0,0,0,4.7913,4.7908,4.786,4.7875,4.7868,4.7823,4.7816,4.7807,4.7798,4.7754,4.7745,4.7771,4.7712,4.7706,4.7704,4.7719,4.7676,4.7675,4.7695,4.7697,4.7699,4.7759,0,0,0,0,0,0,4.7915,4.7909,4.7917,4.7876,4.7867,4.7861,4.7817,4.7807,4.7797,4.7791,4.7751,4.7743,4.7711,4.7706,4.7702,4.7717,4.7674,4.7693,4.7696,4.7698,4.7756,4.7763,4.777,0,0,0,0,0,4.7917,4.7936,4.7917,4.7913,4.7876,4.7862,4.7857,4.7819,4.7798,4.7805,4.7776,4.7745,4.7719,4.7706,4.7702,4.7716,4.7692,4.7695,4.7698,4.7753,4.7762,4.7769,0,0,0,0,0,0,4.7979,4.793,4.7909,4.7916,4.7894,4.7851,4.7858,4.7831,4.7813,4.7808,4.7762,4.7754,4.7756,4.7736,4.7723,4.7731,4.7701,4.7703,4.7744,4.7752,4.7759,4.7763,4.7673,0,0,0,0,0,4.7994,4.7987,4.7944,4.7955,4.7945,4.7904,4.7896,4.7869,4.7844,4.7834,4.7805,4.7781,4.7767,4.7759,4.7744,4.7753,4.7742,4.776,4.7767,4.7773,4.7775,4.7776,4.7783,4.7709,4.7709,4.7709,0,0,4.8024,4.7996,4.7995,4.7966,4.7946,4.7939,4.7896,4.7891,4.7884,4.7833,4.7828,4.7806,4.7776,4.7779,4.7778,4.7762,4.7793,4.7777,4.7782,4.778,4.778,4.7787,4.7793,4.7711,4.7711,4.771,0,0,4.8074,4.8054,4.8059,4.8039,4.8009,4.7982,4.7983,4.7945,4.7928,4.7923,4.7883,4.7875,4.7853,4.7832,4.7819,4.7861,4.783,4.7858,4.7893,4.7894,4.79,4.7905,4.7917,4.7923,4.786,4.786,4.786,0,4.8115,4.8103,4.8065,4.8061,4.8049,4.8003,4.8007,4.799,4.7956,4.7948,4.7931,4.7901,4.7877,4.7874,4.7884,4.7875,4.7874,4.7861,4.7902,4.7907,4.7911,4.7922,4.7927,4.7863,4.7863,4.7863,4.7862,0,4.8153,4.8146,4.8154,4.8123,4.8112,4.8112,4.8073,4.8066,4.804,4.8014,4.8008,4.7979,4.7956,4.7953,4.7928,4.7945,4.7936,4.7911,4.7879,4.7922,4.7931,4.7936,4.7868,4.7867,4.7866,4.7865,0,0,4.824,4.8188,4.8191,4.8175,4.8139,4.8132,4.813,4.8108,4.8102,4.8081,4.8076,4.8058,4.8035,4.802,4.7992,4.7993,4.8025,4.7968,4.7966,4.7978,4.804,4.8057,4.8063,4.8006,4.8007,4.8007,4.8041,0,4.8281,4.8275,4.8241,4.8244,4.8236,4.8192,4.819,4.8166,4.8142,4.813,4.8103,4.809,4.8061,4.8052,4.8052,4.8022,4.8037,4.8019,4.7999,4.7999,4.8006,4.8068,4.8087,4.812,4.8045,4.8046,4.8046,0,4.8329,4.8311,4.8314,4.8276,4.8271,4.827,4.8247,4.8237,4.8209,4.8191,4.8174,4.8143,4.8136,4.8108,4.8097,4.8085,4.8075,4.8059,4.806,4.8054,4.8024,4.8062,4.813,4.8134,4.8052,4.8052,4.8051,0,4.8389,4.8365,4.8363,4.8352,4.8309,4.8309,4.829,4.8261,4.825,4.8229,4.8221,4.82,4.8188,4.8171,4.8134,4.8118,4.8126,4.8096,4.8109,4.811,4.8111,4.8111,4.8176,4.8109,4.8109,4.8108,4.8108,0,4.8438,4.8441,4.8389,4.8388,4.8389,4.8349,4.8351,4.8329,4.8303,4.8295,4.8257,4.825,4.8202,4.819,4.8161,4.8154,4.815,4.8133,4.8125,4.8136,4.8137,4.8127,4.8123,4.811,4.8109,4.8109,4.8109,0,4.8503,4.847,4.8464,4.8424,4.8414,4.8417,4.8382,4.8378,4.8352,4.8342,4.8337,4.8295,4.8278,4.824,4.8213,4.8193,4.8193,4.818,4.8203,4.8197,4.8212,4.8211,4.8271,4.8275,4.8208,4.8208,4.8209,0,4.8536,4.8537,4.8497,4.849,4.8473,4.8462,4.845,4.8411,4.84,4.8368,4.8368,4.8348,4.833,4.8304,4.827,4.8248,4.8233,4.8255,4.8229,4.8239,4.823,4.823,4.8228,4.826,4.8261,4.8262,4.8263,0,4.8596,4.8579,4.8565,4.8544,4.8532,4.8514,4.8493,4.8489,4.8444,4.8434,4.8416,4.8402,4.8374,4.8354,4.8327,4.8306,4.8276,4.8272,4.8273,4.8283,4.8295,4.8286,4.8216,4.827,4.8269,4.8269,4.8268,4.8268,4.8644,4.8642,4.8614,4.8599,4.858,4.8561,4.8555,4.8529,4.8514,4.8489,4.8466,4.845,4.8421,4.8382,4.8363,4.8348,4.8334,4.8336,4.8337,4.8337,4.8341,4.8299,4.8344,4.8343,4.8343,4.8343,4.8343,0,4.87,4.868,4.8666,4.8639,4.8627,4.8602,4.8578,4.8568,4.8556,4.8531,4.8514,4.8493,4.8474,4.8438,4.8415,4.841,4.8395,4.8405,4.8404,4.8399,4.8357,4.8357,4.8417,4.8417,4.8417,4.8417,4.8417,4.8417,4.8727,4.8723,4.8703,4.8688,4.8667,4.8652,4.864,4.8623,4.8603,4.8582,4.8566,4.8543,4.8514,4.8488,4.8468,4.8457,4.845,4.8463,4.8448,4.8409,4.8402,4.8395,4.8395,4.8462,4.8462,4.8491,4.8492,4.8492]}]]